SL-16 DEB, 28042

Orbit data source: Space-Track

SL-16 DEB, 28042 is space debris in LEO originally from a launch on Fri, 25 Dec 1992 UTC launched from the Tyuratam Missile And Space Complex (TTMTR). Debris objects in space refer to the collection of defunct objects orbiting the Earth. Examples of debris include non-operational satellites, rocket bodies, and fragments generated from explosions, collisions, or faulty payload assembly.

Loading next visibility...
Identifier
28042, 1992-093JP
Orbit
LEO
Country
Flag of CISCIS
Related business
Manufacturer
Unknown
Mission
Spacecraft
Bus & Motor
Unknown
Mass
Unknown
Launch date (UTC)
1992-12-25 (33 years ago)
Launch vehicle
Unknown
Launch site
Tyuratam Missile And Space Complex (TTMTR)
Object type
Payload
Rocket body
Debris
Shape & HBR
Unknown shape, 0.1 m
Radar Cross Section
Small (<0.1 m²)

Expand to show TLE details & history
Last TLE update: 18 hours ago

TLE from 18 hours ago
0 SL-16 DEB
1 28042U 92093JP  25296.97843081  .00000920  00000-0  50214-3 0  9999
2 28042  70.8697 125.5786 0068218 102.5556  24.5477 14.13546395479468
Epoch: 2025-10-23T23:28Z
TLE epoch observation values (Epoch: 2025-10-23T23:28:56.421Z)
Latitude
48.72102°
Longitude
-102.42965°
Altitude
809.589 km
Speed
7.477 km/s
True Right ascension
18h 49m 44s
True Declination
48° 33' 06"
Sunlit
Object was in daylight at epoch
Visualization orbit readout
Latitude
Unknown
Longitude
Unknown
Altitude
Unknown
Speed
Unknown
Apparent Right ascension
Unknown
Apparent Declination
Unknown
Sunlit
N/A
Visualization observer readout
Local Sidereal Time
12:58:35
Azimuth
Unknown
Elevation
Unknown
Doppler factor
Unknown
Orbital elements
Apogee altitude
894.477 km
Perigee altitude
795.924 km
Semi-major axis
7,223.337 km
Eccentricity
0.00682
Inclination
70.8697°
RAAN
125.5786°
Arg. of periapsis
102.5556°
True anomaly
24.875°
Mean anomaly
24.5477°
Eccentric anomaly
24.7111°
Mean motion
3.53538 °/min
Orbital period
101.83 mins
BSTAR
0.00050214
Loading maneuver chart data...
Computing Atmospheric mass density...

Documentation

Showing up to 5 results
|